Regional Weather Roundup
Issued by NWS

Home | Current Version | Previous Version | Text Only | Print | Product List | Glossary On
Versions: 1 2 3 4 5 6 7 8 9 10 11 12 13 14 15 16 17 18 19 20 21 22 23 24 25 26 27 28 29 30 31 32 33 34 35 36 37 38 39 40 41 42 43 44 45 46 47 48 49 50
000
ASUS44 KMEG 200100
RWRTN
TENNESSEE HOURLY STATE WEATHER ROUNDUP
NATIONAL WEATHER SERVICE MEMPHIS TN
700 PM CST SUN NOV 19 2017

TNZ002-004-019-021-049-052-054-088>092-200200-
WEST TENNESSEE

CITY           SKY/WX    TMP DP  RH WIND       PRES   REMARKS
MEMPHIS INTL   CLEAR     43  27  53 NE3       30.22S
NWS MEMPHIS      N/A     37 N/A N/A MISG        N/A
JACKSON        CLEAR     34  27  75 SW3       30.24R
DYERSBURG      CLEAR     36  30  79 CALM      30.25R
$$

TNZ008-025-027-028-033-062-065-066-200200-
NORTH MIDDLE TENNESSEE

CITY           SKY/WX    TMP DP  RH WIND       PRES   REMARKS
NASHVILLE      CLEAR     40  23  50 NW5       30.21R
CLARKSVILLE    CLEAR     37  23  56 NW5       30.22R WCI  33
SMYRNA         CLEAR     35  25  66 NW3       30.22R
CROSSVILLE     PTCLDY    33  25  72 CALM      30.14R
$$

TNZ061-075-076-078-094-096-097-200200-
SOUTH MIDDLE TENNESSEE

CITY           SKY/WX    TMP DP  RH WIND       PRES   REMARKS
WINCHESTER     CLEAR     37  27  65 N3        30.17S
$$

TNZ017-018-042-046-047-200200-
NORTHEAST TENNESSEE

CITY           SKY/WX    TMP DP  RH WIND       PRES   REMARKS
TRI CITIES     PTCLDY    37  27  67 W7        30.11R WCI  32
$$

TNZ012-013-036-069-073-074-200200-
CENTRAL EAST TENNESSEE

CITY           SKY/WX    TMP DP  RH WIND       PRES   REMARKS
KNOXVILLE      CLEAR     37  31  78 CALM      30.15R
OAK RIDGE      CLEAR     36  30  79 CALM      30.18R
$$

TNZ083-085-099-200200-
SOUTHEAST TENNESSEE

CITY           SKY/WX    TMP DP  RH WIND       PRES   REMARKS
CHATTANOOGA    CLEAR     40  25  55 NW6       30.17R
$$

SKY/WX REPORTED AS FAIR MEANS FEW OR NO CLOUDS BELOW
12 THOUSAND FEET.





USA.gov is the U.S. government's official web portal to all federal, state and local government web resources and services.